�N����,����,�~����,�C��,���x,�C��,����,���ϕ���,�ő�u�ԕ���,�ő厞����,���˗�,�I�_���x,�n�����x,�ő啗���N��,DTYPE
"17/05/25","00:10",0.0,18.7,94.0,1002.9,305.1,0.8,1.2,312.5,0.00,17.8,20.1,"00:09:20",1
"17/05/25","00:20",0.0,18.7,94.2,1002.6,303.5,1.1,1.4,317.0,0.00,17.8,20.2,"00:13:52",1
"17/05/25","00:30",0.0,18.6,94.3,1002.6,314.4,1.5,1.9,326.4,0.00,17.7,20.2,"00:23:12",1
"17/05/25","00:40",0.0,18.6,94.4,1002.6,329.6,1.0,1.7,335.9,0.00,17.7,19.9,"00:38:40",1
"17/05/25","00:50",0.0,18.6,94.6,1002.4,327.7,1.2,1.9,339.2,0.00,17.8,20.1,"00:45:12",1
"17/05/25","01:00",0.0,18.6,94.6,1002.4,287.1,0.6,1.3,317.9,0.00,17.8,20.1,"00:50:40",1
"17/05/25","01:10",0.0,18.5,94.7,1001.9,287.1,0.2,0.8,262.7,0.00,17.7,20.2,"01:00:56",1
"17/05/25","01:20",0.0,18.5,94.8,1001.9,297.5,0.5,0.8,316.9,0.00,17.7,20.0,"01:17:28",1
"17/05/25","01:30",0.0,18.4,94.9,1001.7,311.6,0.7,1.0,317.2,0.00,17.6,20.1,"01:23:44",1
"17/05/25","01:40",0.2,18.4,95.0,1001.7,335.3,0.8,1.4,345.7,0.00,17.6,20.1,"01:32:56",1
"17/05/25","01:50",0.0,18.4,95.1,1001.5,315.4,0.6,0.8,336.6,0.00,17.6,20.0,"01:41:28",1
"17/05/25","02:00",0.0,18.4,95.1,1001.5,304.1,0.7,1.2,336.6,0.00,17.6,19.8,"01:55:44",1
"17/05/25","02:10",0.0,18.4,95.2,1001.7,334.6,1.0,1.7,339.1,0.00,17.7,20.0,"02:05:20",1
"17/05/25","02:20",0.0,18.3,95.2,1001.5,325.3,0.8,1.8,342.2,0.00,17.6,19.8,"02:11:20",1
"17/05/25","02:30",0.0,18.3,95.3,1001.2,304.8,0.6,1.2,343.5,0.00,17.6,19.9,"02:29:52",1
"17/05/25","02:40",0.0,18.3,95.4,1001.2,313.4,0.8,1.3,330.4,0.00,17.6,19.9,"02:30:02",1
"17/05/25","02:50",0.0,18.2,95.4,1001.5,302.9,0.8,1.6,321.9,0.00,17.5,19.8,"02:42:08",1
"17/05/25","03:00",0.0,18.2,95.4,1000.8,276.8,0.6,1.0,250.7,0.00,17.5,19.9,"02:57:04",1
"17/05/25","03:10",0.0,18.2,95.6,1001.5,297.2,0.7,1.3,324.2,0.00,17.5,19.9,"03:08:08",1
"17/05/25","03:20",0.0,18.2,95.6,1001.2,309.5,0.7,1.1,312.3,0.00,17.5,19.8,"03:17:04",1
"17/05/25","03:30",0.0,18.2,95.7,1001.2,292.3,0.7,1.1,299.9,0.00,17.5,19.8,"03:28:56",1
"17/05/25","03:40",0.0,18.2,95.8,1000.8,307.6,0.7,1.1,316.3,0.00,17.6,19.9,"03:30:40",1
"17/05/25","03:50",0.0,18.2,95.8,1001.2,308.7,0.7,1.1,334.1,0.00,17.6,19.5,"03:46:00",1
"17/05/25","04:00",0.0,18.1,95.9,1001.2,308.3,0.8,1.1,315.1,0.00,17.5,19.8,"03:53:20",1
"17/05/25","04:10",0.0,18.2,96.0,1001.0,325.6,0.7,1.3,330.4,0.00,17.6,19.6,"04:06:00",1
"17/05/25","04:20",0.0,18.2,96.0,1001.0,318.9,0.7,1.2,336.4,0.00,17.6,19.8,"04:12:56",1
"17/05/25","04:30",0.0,18.2,96.0,1000.8,287.6,0.5,0.8,311.5,0.00,17.6,19.6,"04:21:28",1
"17/05/25","04:40",0.0,18.2,96.0,1000.8,298.9,0.7,1.7,333.5,0.00,17.6,19.6,"04:38:24",1
"17/05/25","04:50",0.0,18.1,96.1,1000.8,293.7,0.6,1.1,321.1,0.00,17.5,19.6,"04:40:08",1
"17/05/25","05:00",0.0,18.1,96.1,1001.0,291.8,0.6,1.0,318.4,0.00,17.5,19.6,"04:58:32",1
"17/05/25","05:10",0.0,18.1,96.2,1000.8,317.9,0.8,1.0,318.4,0.00,17.5,19.6,"05:00:32",1
"17/05/25","05:20",0.0,18.2,96.2,1000.5,313.6,0.7,1.0,314.6,0.00,17.6,19.6,"05:16:08",1
"17/05/25","05:30",0.0,18.2,96.3,1000.8,300.7,0.6,1.0,323.3,0.00,17.6,19.6,"05:20:24",1
"17/05/25","05:40",0.0,18.3,96.4,1001.0,302.7,0.6,0.8,321.3,0.00,17.8,19.6,"05:38:00",1
"17/05/25","05:50",0.0,18.4,96.3,1001.0,318.5,0.7,1.1,338.4,0.00,17.8,19.7,"05:46:40",1
"17/05/25","06:00",0.0,18.3,96.4,1001.0,336.5,0.8,1.4,337.7,0.00,17.8,19.3,"05:58:16",1
"17/05/25","06:10",0.0,18.3,96.5,1001.5,303.9,1.0,1.4,321.8,0.00,17.8,19.6,"06:04:08",1
"17/05/25","06:20",0.0,18.3,96.4,1001.2,277.2,0.7,1.0,308.7,0.00,17.8,19.5,"06:10:08",1
"17/05/25","06:30",0.0,18.2,96.5,1001.5,328.8,1.3,2.2,326.4,0.00,17.7,19.6,"06:27:52",1
"17/05/25","06:40",0.0,18.3,96.5,1001.5,263.0,1.1,1.7,214.0,0.00,17.8,19.6,"06:39:26",1
"17/05/25","06:50",0.0,18.2,96.5,1001.7,255.9,0.7,1.6,208.2,0.00,17.7,19.3,"06:40:24",1
"17/05/25","07:00",0.2,18.3,96.6,1001.5,299.2,0.6,1.0,294.4,0.00,17.8,19.4,"06:50:32",1
"17/05/25","07:10",0.0,18.4,96.6,1001.5,287.3,0.7,1.4,319.8,0.01,17.9,19.6,"07:08:10",1
"17/05/25","07:20",0.0,18.4,96.6,1001.5,292.1,0.6,1.0,324.6,0.02,17.9,19.5,"07:15:34",1
"17/05/25","07:30",0.0,18.6,96.7,1001.2,196.7,0.2,0.8,137.2,0.02,18.1,19.4,"07:28:08",1
"17/05/25","07:40",0.0,18.6,96.6,1001.2,241.4,0.5,0.6,256.4,0.02,18.1,19.6,"07:32:00",1
"17/05/25","07:50",0.0,18.7,96.6,1001.2,183.8,0.3,1.1,129.5,0.02,18.2,19.5,"07:49:44",1
"17/05/25","08:00",0.0,18.8,96.5,1001.0,163.1,0.7,1.6,149.5,0.02,18.3,19.6,"07:53:20",1
"17/05/25","08:10",0.0,18.8,96.4,1001.0,151.2,0.5,1.6,161.4,0.01,18.3,19.5,"08:06:16",1
"17/05/25","08:20",0.0,18.9,96.4,1000.8,113.9,0.2,1.0,139.7,0.01,18.4,19.6,"08:12:32",1
"17/05/25","08:30",0.0,18.8,96.3,1001.2,148.8,0.5,1.9,131.2,0.00,18.2,19.7,"08:24:40",1
"17/05/25","08:40",0.0,19.0,96.3,1001.0,338.6,0.8,1.7,337.7,0.02,18.4,19.7,"08:38:00",1
"17/05/25","08:50",0.0,19.2,96.1,1001.2,237.4,0.5,0.9,310.8,0.05,18.6,19.7,"08:40:08",1
"17/05/25","09:00",0.0,19.2,95.7,1001.2,34.8,0.7,1.7,341.8,0.03,18.5,19.5,"08:59:28",1
"17/05/25","09:10",0.0,19.2,95.8,1001.5,274.7,0.7,1.4,331.9,0.02,18.6,19.6,"09:00:40",1
"17/05/25","09:20",0.0,19.3,95.6,1001.5,193.2,1.1,3.1,194.2,0.04,18.6,19.7,"09:17:12",1
"17/05/25","09:30",0.0,19.3,95.5,1001.5,186.0,1.1,2.6,210.8,0.03,18.6,19.8,"09:21:28",1
"17/05/25","09:40",0.0,19.6,95.4,1001.7,197.7,0.8,2.4,198.2,0.07,18.9,19.6,"09:31:52",1
"17/05/25","09:50",0.0,19.8,95.1,1001.2,165.2,0.5,1.4,121.5,0.07,19.0,19.7,"09:49:44",1
"17/05/25","10:00",0.0,19.7,94.6,1001.7,148.9,0.7,2.0,132.0,0.04,18.8,19.8,"09:50:24",1
"17/05/25","10:10",0.0,19.7,94.8,1001.5,155.8,0.7,1.4,111.4,0.06,18.9,19.8,"10:08:24",1
"17/05/25","10:20",0.0,19.9,93.5,1000.8,148.2,1.0,2.8,173.1,0.14,18.9,19.9,"10:19:04",1
"17/05/25","10:30",0.0,20.1,93.5,1000.5,163.3,1.3,2.9,126.1,0.08,19.1,20.0,"10:28:08",1
"17/05/25","10:40",0.0,20.2,93.2,1001.0,120.1,0.7,2.7,127.3,0.05,19.1,20.1,"10:31:04",1
"17/05/25","10:50",0.0,20.3,92.8,1000.8,80.1,0.3,1.1,176.5,0.05,19.1,20.0,"10:40:40",1
"17/05/25","11:00",0.0,20.3,92.4,1000.8,139.9,0.6,1.7,168.4,0.08,19.1,20.0,"10:57:44",1
"17/05/25","11:10",0.0,20.7,91.4,1000.5,157.4,0.7,1.9,139.3,0.12,19.3,20.2,"11:05:44",1
"17/05/25","11:20",0.0,20.6,90.7,1000.8,207.3,0.8,2.6,238.6,0.09,19.1,20.2,"11:17:36",1
"17/05/25","11:30",0.0,20.9,89.2,1000.8,253.9,0.8,2.1,240.1,0.14,19.1,20.4,"11:29:04",1
"17/05/25","11:40",0.0,21.1,88.4,1000.8,294.1,1.1,1.7,309.0,0.09,19.1,20.2,"11:38:08",1
"17/05/25","11:50",0.0,21.0,88.7,1001.0,336.4,1.5,2.5,328.9,0.08,19.1,20.5,"11:41:36",1
"17/05/25","12:00",0.0,21.0,87.8,1000.8,344.7,1.1,2.6,337.1,0.13,18.9,20.6,"11:51:28",1
"17/05/25","12:10",0.0,21.7,86.4,1000.5,350.2,0.5,1.3,339.8,0.23,19.4,20.5,"12:09:12",1
"17/05/25","12:20",0.2,22.4,84.1,1000.5,346.2,1.0,1.9,317.8,0.27,19.6,20.7,"12:10:02",1
"17/05/25","12:30",0.0,22.2,83.6,1000.3,319.7,1.5,2.5,335.9,0.28,19.3,20.8,"12:28:56",1
"17/05/25","12:40",0.0,22.2,83.8,1000.5,325.4,1.8,3.1,334.5,0.21,19.4,21.0,"12:39:36",1
"17/05/25","12:50",0.0,22.3,82.8,1000.3,325.0,1.8,3.1,338.9,0.25,19.3,21.0,"12:46:24",1
"17/05/25","13:00",0.0,22.6,79.8,999.6,230.9,1.1,2.7,235.1,0.23,19.0,21.2,"12:51:44",1
"17/05/25","13:10",0.0,23.2,79.9,999.6,34.2,1.0,2.4,44.0,0.28,19.6,21.2,"13:00:48",1
"17/05/25","13:20",0.0,22.8,78.2,999.8,218.5,1.5,3.5,220.4,0.19,18.8,21.3,"13:18:32",1
"17/05/25","13:30",0.0,23.0,74.0,999.1,215.3,1.5,3.5,226.7,0.23,18.2,21.5,"13:21:04",1
"17/05/25","13:40",0.0,24.0,72.9,999.1,217.5,0.8,2.4,237.4,0.35,18.9,21.7,"13:31:12",1
"17/05/25","13:50",0.0,25.0,69.2,998.6,204.3,1.2,2.9,153.8,0.52,19.0,21.7,"13:44:00",1
"17/05/25","14:00",0.0,24.1,69.0,998.6,187.5,1.5,2.7,118.1,0.36,18.1,21.8,"13:52:56",1
"17/05/25","14:10",0.0,24.5,67.1,998.4,175.7,1.6,2.6,178.5,0.36,18.0,22.1,"14:05:04",1
"17/05/25","14:20",0.0,24.5,66.9,998.2,178.8,1.2,4.2,134.0,0.34,18.0,22.4,"14:14:24",1
"17/05/25","14:30",0.0,25.3,63.3,997.9,198.0,1.3,3.3,192.8,0.50,17.9,22.4,"14:20:08",1
"17/05/25","14:40",0.0,24.5,66.9,997.7,188.6,1.8,3.7,206.1,0.34,18.0,22.5,"14:37:52",1
"17/05/25","14:50",0.0,24.3,66.8,997.9,198.7,2.1,3.9,182.8,0.28,17.8,22.4,"14:41:28",1
"17/05/25","15:00",0.0,24.4,69.1,997.9,166.7,1.5,3.5,151.0,0.24,18.4,22.6,"14:53:44",1
"17/05/25","15:10",0.0,24.3,68.4,997.7,167.7,1.2,2.6,150.2,0.23,18.2,22.7,"15:08:40",1
"17/05/25","15:20",0.0,23.8,69.4,997.4,199.9,1.0,2.8,186.2,0.14,17.9,22.7,"15:18:08",1
"17/05/25","15:30",0.0,23.9,67.7,997.9,179.9,1.3,3.4,195.9,0.15,17.6,22.4,"15:27:52",1
"17/05/25","15:40",0.2,24.0,69.5,997.2,183.0,1.3,2.5,199.7,0.18,18.1,22.9,"15:37:36",1
"17/05/25","15:50",0.0,24.0,69.5,997.2,194.8,2.2,4.0,193.1,0.27,18.1,22.7,"15:44:56",1
"17/05/25","16:00",0.0,23.8,69.7,997.2,172.5,1.5,3.5,175.5,0.19,18.0,22.7,"15:56:32",1
"17/05/25","16:10",0.0,25.0,69.0,997.2,190.7,1.5,2.8,151.6,0.30,19.0,22.9,"16:04:32",1
"17/05/25","16:20",0.0,24.3,66.9,997.2,174.9,1.7,3.5,139.2,0.26,17.8,22.7,"16:11:12",1
"17/05/25","16:30",0.0,24.4,67.8,997.2,189.5,1.7,3.9,157.6,0.26,18.1,22.7,"16:25:04",1
"17/05/25","16:40",0.0,24.9,63.4,997.2,189.3,2.1,4.5,235.2,0.29,17.5,22.8,"16:37:36",1
"17/05/25","16:50",0.0,24.1,65.1,997.4,193.7,1.7,3.9,218.3,0.12,17.2,22.8,"16:42:08",1
"17/05/25","17:00",0.0,23.6,66.7,997.4,202.9,1.6,4.1,223.5,0.08,17.1,22.8,"16:52:56",1
"17/05/25","17:10",0.0,23.8,66.9,997.2,185.3,1.3,2.8,197.1,0.12,17.3,22.9,"17:08:48",1
"17/05/25","17:20",0.0,23.3,68.9,997.7,192.2,2.0,3.5,213.9,0.06,17.3,22.7,"17:11:44",1
"17/05/25","17:30",0.0,23.1,70.0,997.9,179.3,1.3,2.1,194.3,0.06,17.4,22.7,"17:26:32",1
"17/05/25","17:40",0.0,23.0,71.0,997.7,205.3,1.3,3.2,232.2,0.05,17.5,22.7,"17:33:28",1
"17/05/25","17:50",0.0,23.2,71.6,998.2,208.7,1.2,2.5,174.1,0.06,17.8,22.6,"17:48:00",1
"17/05/25","18:00",0.0,23.2,72.0,997.9,179.5,1.1,3.2,146.9,0.06,17.9,22.5,"17:56:32",1
"17/05/25","18:10",0.0,23.0,72.9,997.9,150.4,1.1,2.6,88.7,0.04,17.9,22.5,"18:09:52",1
"17/05/25","18:20",0.0,22.7,73.8,998.4,159.3,1.1,2.0,143.8,0.02,17.8,22.4,"18:10:32",1
"17/05/25","18:30",0.0,22.4,74.7,998.6,172.8,0.7,1.8,128.6,0.00,17.7,22.4,"18:27:52",1
"17/05/25","18:40",0.0,22.2,75.8,998.2,155.6,0.6,1.6,144.4,0.00,17.8,22.4,"18:32:00",1
"17/05/25","18:50",0.0,22.0,74.3,998.4,165.6,0.8,2.1,200.1,0.00,17.3,22.2,"18:48:16",1
"17/05/25","19:00",0.0,21.9,73.1,998.6,194.5,0.6,2.0,200.1,0.00,16.9,22.2,"18:55:52",1
"17/05/25","19:10",0.0,21.9,75.1,998.6,258.4,1.1,2.4,198.3,0.00,17.3,21.9,"19:02:32",1
"17/05/25","19:20",0.0,21.6,78.4,998.6,310.3,1.1,1.8,316.2,0.00,17.7,21.9,"19:12:16",1
"17/05/25","19:30",0.0,21.2,81.0,998.4,343.7,1.1,2.0,358.3,0.00,17.9,21.9,"19:25:28",1
"17/05/25","19:40",0.0,20.6,82.8,998.6,330.3,1.1,1.7,333.7,0.00,17.6,21.7,"19:37:20",1
"17/05/25","19:50",0.0,20.3,84.2,998.6,306.7,1.2,2.1,327.8,0.00,17.6,21.7,"19:45:52",1
"17/05/25","20:00",0.0,20.0,85.4,999.1,285.4,0.8,1.8,338.1,0.00,17.5,21.5,"19:52:40",1
"17/05/25","20:10",0.0,19.8,86.3,998.6,315.2,1.3,2.0,326.0,0.00,17.5,21.6,"20:05:12",1
"17/05/25","20:20",0.0,19.6,87.0,999.1,306.4,1.0,1.8,331.6,0.00,17.4,21.6,"20:11:20",1
"17/05/25","20:30",0.0,19.5,87.7,999.3,296.2,1.0,1.8,313.8,0.00,17.4,21.4,"20:29:52",1
"17/05/25","20:40",0.2,19.4,88.0,999.1,314.4,1.3,3.1,340.9,0.00,17.4,21.1,"20:32:00",1
"17/05/25","20:50",0.0,19.4,88.2,999.1,317.8,1.1,1.6,340.1,0.00,17.4,21.3,"20:42:16",1
"17/05/25","21:00",0.0,19.2,88.6,999.3,295.5,1.0,2.4,330.4,0.00,17.3,21.1,"20:56:00",1
"17/05/25","21:10",0.0,19.2,88.6,999.3,285.4,1.0,1.6,313.2,0.00,17.3,21.1,"21:09:52",1
"17/05/25","21:20",0.0,19.1,88.7,998.9,289.5,1.1,2.0,324.6,0.00,17.2,20.9,"21:11:52",1
"17/05/25","21:30",0.0,19.0,88.9,999.1,296.3,1.0,1.4,290.0,0.00,17.2,20.9,"21:29:44",1
"17/05/25","21:40",0.0,18.9,89.0,999.6,295.4,1.1,1.8,322.1,0.00,17.1,20.9,"21:30:24",1
"17/05/25","21:50",0.0,18.9,89.3,999.6,301.4,0.8,1.4,315.8,0.00,17.1,20.8,"21:46:48",1
"17/05/25","22:00",0.0,18.8,89.7,999.3,334.3,1.2,1.7,346.6,0.00,17.1,20.6,"21:54:48",1
"17/05/25","22:10",0.0,18.7,90.1,999.3,320.7,1.2,2.2,319.4,0.00,17.1,20.8,"22:00:08",1
"17/05/25","22:20",0.0,18.7,90.3,999.3,290.8,0.8,1.2,322.0,0.00,17.1,20.7,"22:14:32",1
"17/05/25","22:30",0.0,18.7,90.5,999.3,307.9,1.0,1.3,325.5,0.00,17.2,20.5,"22:27:04",1
"17/05/25","22:40",0.0,18.7,90.7,999.1,327.5,1.2,1.8,331.5,0.00,17.2,20.6,"22:34:00",1
"17/05/25","22:50",0.0,18.5,90.6,999.3,288.3,1.0,1.7,344.0,0.00,17.0,20.5,"22:41:04",1
"17/05/25","23:00",0.0,18.4,90.7,999.1,311.2,1.0,1.6,323.2,0.00,16.9,20.5,"22:54:40",1
"17/05/25","23:10",0.0,18.4,90.8,999.3,290.4,0.8,1.1,318.4,0.00,16.9,20.6,"23:00:56",1
"17/05/25","23:20",0.0,18.4,91.0,999.1,312.6,1.1,1.4,317.4,0.00,16.9,20.4,"23:10:48",1
"17/05/25","23:30",0.0,18.3,91.3,999.1,330.9,1.3,1.9,318.1,0.00,16.9,20.2,"23:21:28",1
"17/05/25","23:40",0.0,18.2,91.6,999.1,306.4,1.0,1.7,333.7,0.00,16.9,20.2,"23:30:32",1
"17/05/25","23:50",0.0,18.0,91.8,999.1,305.3,1.1,1.6,318.7,0.00,16.7,20.3,"23:46:08",1
"17/05/25","24:00",0.0,18.1,92.2,998.6,323.6,1.1,2.1,328.3,0.00,16.9,20.3,"23:55:28",1
